Year,Month,Day,Hour,Minute,Value (Times are PST for temperature in C)
2009,07,01,00,00,8.40
2009,07,01,00,01,8.40
2009,07,01,00,02,8.30
2009,07,01,00,03,8.30
2009,07,01,00,04,8.30
2009,07,01,00,05,8.30
2009,07,01,00,06,8.30
2009,07,01,00,07,8.30
2009,07,01,00,08,8.30
2009,07,01,00,09,8.20
2009,07,01,00,10,8.20
2009,07,01,00,11,8.20
2009,07,01,00,12,8.20
2009,07,01,00,13,8.10
2009,07,01,00,14,8.10
2009,07,01,00,15,8.10
2009,07,01,00,16,8.10
2009,07,01,00,17,8.00
2009,07,01,00,18,8.00
2009,07,01,00,19,8.00
2009,07,01,00,20,8.00
2009,07,01,00,21,7.90
2009,07,01,00,22,7.90
2009,07,01,00,23,7.90
2009,07,01,00,24,7.90
2009,07,01,00,25,7.90
2009,07,01,00,26,7.80
2009,07,01,00,27,7.80
2009,07,01,00,28,7.80
2009,07,01,00,29,7.80
2009,07,01,00,30,7.80
2009,07,01,00,31,7.70
2009,07,01,00,32,7.70
2009,07,01,00,33,7.70
2009,07,01,00,34,7.70
2009,07,01,00,35,7.70
2009,07,01,00,36,7.60
2009,07,01,00,37,7.60
2009,07,01,00,38,7.60
2009,07,01,00,39,7.60
2009,07,01,00,40,7.60
2009,07,01,00,41,7.60
2009,07,01,00,42,7.50
2009,07,01,00,43,7.50
2009,07,01,00,44,7.50
2009,07,01,00,45,7.50
2009,07,01,00,46,7.40
2009,07,01,00,47,7.40
2009,07,01,00,48,7.40
2009,07,01,00,49,7.40
2009,07,01,00,50,7.40
2009,07,01,00,51,7.40
2009,07,01,00,52,7.40
2009,07,01,00,53,7.40
2009,07,01,00,54,7.40
2009,07,01,00,55,7.40
2009,07,01,00,56,7.40
2009,07,01,00,57,7.40
2009,07,01,00,58,7.40
2009,07,01,00,59,7.40
2009,07,01,01,00,7.40
2009,07,01,01,01,7.30
2009,07,01,01,02,7.30
2009,07,01,01,03,7.30
2009,07,01,01,04,7.30
2009,07,01,01,05,7.30
2009,07,01,01,06,7.30
2009,07,01,01,07,7.30
2009,07,01,01,08,7.30
2009,07,01,01,09,7.30
2009,07,01,01,10,7.30
2009,07,01,01,11,7.30
2009,07,01,01,12,7.30
2009,07,01,01,13,7.30
2009,07,01,01,14,7.30
2009,07,01,01,15,7.30
2009,07,01,01,16,7.30
2009,07,01,01,17,7.20
2009,07,01,01,18,7.20
2009,07,01,01,19,7.20
2009,07,01,01,20,7.20
2009,07,01,01,21,7.20
2009,07,01,01,22,7.20
2009,07,01,01,23,7.20
2009,07,01,01,24,7.20
2009,07,01,01,25,7.20
2009,07,01,01,26,7.20
2009,07,01,01,27,7.20
2009,07,01,01,28,7.20
2009,07,01,01,29,7.20
2009,07,01,01,30,7.20
2009,07,01,01,31,7.10
2009,07,01,01,32,7.10
2009,07,01,01,33,7.10
2009,07,01,01,34,7.10
2009,07,01,01,35,7.10
2009,07,01,01,36,7.10
2009,07,01,01,37,7.00
2009,07,01,01,38,7.00
2009,07,01,01,39,7.00
2009,07,01,01,40,7.00
2009,07,01,01,41,7.00
2009,07,01,01,42,7.00
2009,07,01,01,43,7.00
2009,07,01,01,44,7.00
2009,07,01,01,45,7.00
2009,07,01,01,46,7.00
2009,07,01,01,47,7.00
2009,07,01,01,48,7.00
2009,07,01,01,49,7.00
2009,07,01,01,50,7.00
2009,07,01,01,51,7.00
2009,07,01,01,52,7.00
2009,07,01,01,53,7.00
2009,07,01,01,54,7.00
2009,07,01,01,55,7.00
2009,07,01,01,56,7.00
2009,07,01,01,57,7.00
2009,07,01,01,58,7.00
2009,07,01,01,59,7.00
2009,07,01,02,00,7.00
2009,07,01,02,01,7.00
2009,07,01,02,02,7.00
2009,07,01,02,03,6.90
2009,07,01,02,04,6.90
2009,07,01,02,05,6.90
2009,07,01,02,06,6.90
2009,07,01,02,07,6.90
2009,07,01,02,08,6.80
2009,07,01,02,09,6.80
2009,07,01,02,10,6.80
2009,07,01,02,11,6.80
2009,07,01,02,12,6.80
2009,07,01,02,13,6.80
2009,07,01,02,14,6.80
2009,07,01,02,15,6.80
2009,07,01,02,16,6.80
2009,07,01,02,17,6.80
2009,07,01,02,18,6.80
2009,07,01,02,19,6.80
2009,07,01,02,20,6.80
2009,07,01,02,21,6.70
2009,07,01,02,22,6.70
2009,07,01,02,23,6.70
2009,07,01,02,24,6.70
2009,07,01,02,25,6.70
2009,07,01,02,26,6.70
2009,07,01,02,27,6.70
2009,07,01,02,28,6.70
2009,07,01,02,29,6.70
2009,07,01,02,30,6.70
2009,07,01,02,31,6.70
2009,07,01,02,32,6.70
2009,07,01,02,33,6.70
2009,07,01,02,34,6.70
2009,07,01,02,35,6.70
2009,07,01,02,36,6.70
2009,07,01,02,37,6.70
2009,07,01,02,38,6.80
2009,07,01,02,39,6.80
2009,07,01,02,40,6.80
2009,07,01,02,41,6.80
2009,07,01,02,42,6.70
2009,07,01,02,43,6.70
2009,07,01,02,44,6.70
2009,07,01,02,45,6.70
2009,07,01,02,46,6.70
2009,07,01,02,47,6.70
2009,07,01,02,48,6.70
2009,07,01,02,49,6.60
2009,07,01,02,50,6.60
2009,07,01,02,51,6.60
2009,07,01,02,52,6.60
2009,07,01,02,53,6.50
2009,07,01,02,54,6.50
2009,07,01,02,55,6.50
2009,07,01,02,56,6.50
2009,07,01,02,57,6.50
2009,07,01,02,58,6.50
2009,07,01,02,59,6.50
2009,07,01,03,00,6.50
2009,07,01,03,01,6.50
2009,07,01,03,02,6.50
2009,07,01,03,03,6.50
2009,07,01,03,04,6.40
2009,07,01,03,05,6.40
2009,07,01,03,06,6.40
2009,07,01,03,07,6.40
2009,07,01,03,08,6.40
2009,07,01,03,09,6.40
2009,07,01,03,10,6.40
2009,07,01,03,11,6.30
2009,07,01,03,12,6.30
2009,07,01,03,13,6.30
2009,07,01,03,14,6.30
2009,07,01,03,15,6.30
2009,07,01,03,16,6.30
2009,07,01,03,17,6.30
2009,07,01,03,18,6.30
2009,07,01,03,19,6.30
2009,07,01,03,20,6.30
2009,07,01,03,21,6.30
2009,07,01,03,22,6.20
2009,07,01,03,23,6.20
2009,07,01,03,24,6.20
2009,07,01,03,25,6.20
2009,07,01,03,26,6.20
2009,07,01,03,27,6.20
2009,07,01,03,28,6.20
2009,07,01,03,29,6.20
2009,07,01,03,30,6.10
2009,07,01,03,31,6.10
2009,07,01,03,32,6.10
2009,07,01,03,33,6.10
2009,07,01,03,34,6.10
2009,07,01,03,35,6.10
2009,07,01,03,36,6.10
2009,07,01,03,37,6.10
2009,07,01,03,38,6.10
2009,07,01,03,39,6.10
2009,07,01,03,40,6.00
2009,07,01,03,41,6.00
2009,07,01,03,42,6.00
2009,07,01,03,43,6.00
2009,07,01,03,44,6.00
2009,07,01,03,45,6.00
2009,07,01,03,46,6.00
2009,07,01,03,47,6.00
2009,07,01,03,48,6.00
2009,07,01,03,49,5.90
2009,07,01,03,50,5.90
2009,07,01,03,51,5.90
2009,07,01,03,52,5.90
2009,07,01,03,53,5.90
2009,07,01,03,54,5.90
2009,07,01,03,55,5.90
2009,07,01,03,56,5.90
2009,07,01,03,57,5.90
2009,07,01,03,58,5.90
2009,07,01,03,59,5.90
2009,07,01,04,00,5.90
2009,07,01,04,01,5.90
2009,07,01,04,02,5.90
2009,07,01,04,03,5.80
2009,07,01,04,16,5.80
2009,07,01,04,27,5.70
2009,07,01,04,38,5.40
2009,07,01,04,50,5.30
2009,07,01,05,00,5.30
2009,07,01,05,10,5.30
2009,07,01,05,21,5.30
2009,07,01,05,29,5.30
2009,07,01,05,30,5.30
2009,07,01,05,31,5.30
2009,07,01,05,32,5.30
2009,07,01,05,33,5.30
2009,07,01,05,34,5.30
2009,07,01,05,35,5.20
2009,07,01,05,36,5.20
2009,07,01,05,37,5.20
2009,07,01,05,38,5.20
2009,07,01,05,39,5.20
2009,07,01,05,40,5.20
2009,07,01,05,41,5.20
2009,07,01,05,42,5.20
2009,07,01,05,43,5.20
2009,07,01,05,44,5.20
2009,07,01,05,45,5.20
2009,07,01,05,46,5.20
2009,07,01,05,47,5.20
2009,07,01,05,48,5.20
2009,07,01,05,49,5.20
2009,07,01,05,50,5.20
2009,07,01,05,51,5.30
2009,07,01,05,52,5.20
2009,07,01,05,53,5.20
2009,07,01,05,54,5.20
2009,07,01,05,55,5.20
2009,07,01,05,56,5.20
2009,07,01,05,57,5.20
2009,07,01,05,58,5.20
2009,07,01,05,59,5.20
2009,07,01,06,00,5.20
2009,07,01,06,01,5.20
2009,07,01,06,02,5.20
2009,07,01,06,03,5.30
2009,07,01,06,04,5.30
2009,07,01,06,05,5.30
2009,07,01,06,06,5.30
2009,07,01,06,07,5.30
2009,07,01,06,08,5.30
2009,07,01,06,09,5.30
2009,07,01,06,10,5.30
2009,07,01,06,11,5.30
2009,07,01,06,12,5.30
2009,07,01,06,13,5.30
2009,07,01,06,14,5.40
2009,07,01,06,15,5.40
2009,07,01,06,16,5.40
2009,07,01,06,17,5.40
2009,07,01,06,18,5.40
2009,07,01,06,19,5.40
2009,07,01,06,20,5.40
2009,07,01,06,21,5.40
2009,07,01,06,22,5.50
2009,07,01,06,23,5.50
2009,07,01,06,24,5.50
2009,07,01,06,25,5.50
2009,07,01,06,26,5.60
2009,07,01,06,27,5.60
2009,07,01,06,28,5.60
2009,07,01,06,29,5.60
2009,07,01,06,30,5.60
2009,07,01,06,31,5.60
2009,07,01,06,32,5.70
2009,07,01,06,33,5.70
2009,07,01,06,34,5.70
2009,07,01,06,35,5.70
2009,07,01,06,36,5.70
2009,07,01,06,37,5.70
2009,07,01,06,38,5.70
2009,07,01,06,39,5.70
2009,07,01,06,40,5.80
2009,07,01,06,41,5.80
2009,07,01,06,42,5.80
2009,07,01,06,43,5.80
2009,07,01,06,44,5.80
2009,07,01,06,45,5.80
2009,07,01,06,46,5.80
2009,07,01,06,47,5.90
2009,07,01,06,48,5.90
2009,07,01,06,49,5.90
2009,07,01,06,50,6.00
2009,07,01,06,51,6.00
2009,07,01,06,52,6.10
2009,07,01,06,53,6.10
2009,07,01,06,54,6.20
2009,07,01,06,55,6.20
2009,07,01,06,56,6.20
2009,07,01,06,57,6.30
2009,07,01,06,58,6.30
2009,07,01,06,59,6.40
2009,07,01,07,00,6.40
2009,07,01,07,01,6.50
2009,07,01,07,02,6.60
2009,07,01,07,03,6.70
2009,07,01,07,04,6.70
2009,07,01,07,05,6.80
2009,07,01,07,06,6.90
2009,07,01,07,07,6.90
2009,07,01,07,08,7.00
2009,07,01,07,09,7.10
2009,07,01,07,10,7.20
2009,07,01,07,11,7.30
2009,07,01,07,12,7.40
2009,07,01,07,13,7.50
2009,07,01,07,14,7.60
2009,07,01,07,15,7.80
2009,07,01,07,16,8.10
2009,07,01,07,17,8.20
2009,07,01,07,18,8.40
2009,07,01,07,19,8.50
2009,07,01,07,20,8.60
2009,07,01,07,21,8.70
2009,07,01,07,22,8.80
2009,07,01,07,23,8.90
2009,07,01,07,24,9.00
2009,07,01,07,25,9.10
2009,07,01,07,26,9.20
2009,07,01,07,27,9.40
2009,07,01,07,28,9.60
2009,07,01,07,29,9.90
2009,07,01,07,30,10.10
2009,07,01,07,31,10.40
2009,07,01,07,32,10.70
2009,07,01,07,33,10.90
2009,07,01,07,34,11.10
2009,07,01,07,35,11.30
2009,07,01,07,36,11.40
2009,07,01,07,37,11.50
2009,07,01,07,38,11.60
2009,07,01,07,39,11.80
2009,07,01,07,40,12.00
2009,07,01,07,41,12.20
2009,07,01,07,42,12.40
2009,07,01,07,43,12.50
2009,07,01,07,44,12.80
2009,07,01,07,45,13.00
2009,07,01,07,46,13.20
2009,07,01,07,47,13.40
2009,07,01,07,48,13.60
2009,07,01,07,49,13.80
2009,07,01,07,50,14.00
2009,07,01,07,51,14.10
2009,07,01,07,52,14.20
2009,07,01,07,53,14.40
2009,07,01,07,54,14.60
2009,07,01,07,55,14.70
2009,07,01,07,56,14.80
2009,07,01,07,57,14.90
2009,07,01,07,58,15.00
2009,07,01,07,59,15.00
2009,07,01,08,00,15.00
2009,07,01,08,01,15.00
2009,07,01,08,02,15.10
2009,07,01,08,03,15.20
2009,07,01,08,04,15.30
2009,07,01,08,05,15.40
2009,07,01,08,06,15.40
2009,07,01,08,07,15.50
2009,07,01,08,08,15.60
2009,07,01,08,09,15.70
2009,07,01,08,10,15.70
2009,07,01,08,11,15.80
2009,07,01,08,12,15.80
2009,07,01,08,13,15.90
2009,07,01,08,14,16.00
2009,07,01,08,15,16.10
2009,07,01,08,16,16.10
2009,07,01,08,17,16.10
2009,07,01,08,18,16.20
2009,07,01,08,19,16.20
2009,07,01,08,20,16.20
2009,07,01,08,21,16.20
2009,07,01,08,22,16.20
2009,07,01,08,23,16.20
2009,07,01,08,24,16.30
2009,07,01,08,25,16.30
2009,07,01,08,26,16.40
2009,07,01,08,27,16.50
2009,07,01,08,28,16.50
2009,07,01,08,29,16.60
2009,07,01,08,30,16.70
2009,07,01,08,31,16.70
2009,07,01,08,32,16.70
2009,07,01,08,33,16.80
2009,07,01,08,34,16.80
2009,07,01,08,35,16.80
2009,07,01,08,36,16.80
2009,07,01,08,37,16.80
2009,07,01,08,38,16.80
2009,07,01,08,39,16.80
2009,07,01,08,40,16.90
2009,07,01,08,41,16.90
2009,07,01,08,42,17.00
2009,07,01,08,43,17.00
2009,07,01,08,44,17.10
2009,07,01,08,45,17.10
2009,07,01,08,46,17.20
2009,07,01,08,47,17.20
2009,07,01,08,48,17.20
2009,07,01,08,49,17.30
2009,07,01,08,50,17.30
2009,07,01,08,51,17.30
2009,07,01,08,52,17.30
2009,07,01,08,53,17.30
2009,07,01,08,54,17.30
2009,07,01,08,55,17.30
2009,07,01,08,56,17.30
2009,07,01,08,57,17.40
2009,07,01,08,58,17.40
2009,07,01,08,59,17.40
2009,07,01,09,00,17.50
2009,07,01,09,01,17.50
2009,07,01,09,02,17.60
2009,07,01,09,03,17.70
2009,07,01,09,04,17.80
2009,07,01,09,05,17.90
2009,07,01,09,06,18.00
2009,07,01,09,07,18.00
2009,07,01,09,08,18.10
2009,07,01,09,09,18.10
2009,07,01,09,10,18.10
2009,07,01,09,11,18.10
2009,07,01,09,12,18.10
2009,07,01,09,13,18.10
2009,07,01,09,14,18.10
2009,07,01,09,15,18.10
2009,07,01,09,16,18.20
2009,07,01,09,17,18.20
2009,07,01,09,18,18.20
2009,07,01,09,19,18.20
2009,07,01,09,20,18.20
2009,07,01,09,21,18.20
2009,07,01,09,22,18.10
2009,07,01,09,23,18.10
2009,07,01,09,24,18.10
2009,07,01,09,25,18.10
2009,07,01,09,26,18.10
2009,07,01,09,27,18.10
2009,07,01,09,28,18.10
2009,07,01,09,29,18.10
2009,07,01,09,30,18.10
2009,07,01,09,31,18.10
2009,07,01,09,32,18.20
2009,07,01,09,33,18.20
2009,07,01,09,34,18.20
2009,07,01,09,35,18.20
2009,07,01,09,36,18.20
2009,07,01,09,37,18.20
2009,07,01,09,38,18.10
2009,07,01,09,39,18.10
2009,07,01,09,40,18.10
2009,07,01,09,41,18.10
2009,07,01,09,42,18.10
2009,07,01,09,43,18.20
2009,07,01,09,44,18.20
2009,07,01,09,45,18.20
2009,07,01,09,46,18.20
2009,07,01,09,47,18.20
2009,07,01,09,48,18.30
2009,07,01,09,49,18.30
2009,07,01,09,50,18.30
2009,07,01,09,51,18.30
2009,07,01,09,52,18.30
2009,07,01,09,53,18.30
2009,07,01,09,54,18.30
2009,07,01,09,55,18.30
2009,07,01,09,56,18.30
2009,07,01,09,57,18.30
2009,07,01,09,58,18.30
2009,07,01,09,59,18.30
2009,07,01,10,00,18.30
2009,07,01,10,01,18.30
2009,07,01,10,02,18.30
2009,07,01,10,03,18.30
2009,07,01,10,04,18.40
2009,07,01,10,05,18.30
2009,07,01,10,06,18.40
2009,07,01,10,07,18.30
2009,07,01,10,08,18.30
2009,07,01,10,09,18.30
2009,07,01,10,10,18.30
2009,07,01,10,11,18.30
2009,07,01,10,12,18.30
2009,07,01,10,13,18.40
2009,07,01,10,14,18.40
2009,07,01,10,15,18.50
2009,07,01,10,16,18.50
2009,07,01,10,17,18.60
2009,07,01,10,18,18.60
2009,07,01,10,19,18.60
2009,07,01,10,20,18.60
2009,07,01,10,21,18.70
2009,07,01,10,22,18.70
2009,07,01,10,23,18.80
2009,07,01,10,24,18.80
2009,07,01,10,25,18.80
2009,07,01,10,26,18.90
2009,07,01,10,27,18.90
2009,07,01,10,28,18.90
2009,07,01,10,29,18.80
2009,07,01,10,30,18.80
2009,07,01,10,31,18.80
2009,07,01,10,32,18.90
2009,07,01,10,33,18.90
2009,07,01,10,34,18.90
2009,07,01,10,35,18.90
2009,07,01,10,36,18.90
2009,07,01,10,37,19.00
2009,07,01,10,38,19.00
2009,07,01,10,39,19.00
2009,07,01,10,40,19.00
2009,07,01,10,41,19.00
2009,07,01,10,42,18.90
2009,07,01,10,43,18.90
2009,07,01,10,44,18.90
2009,07,01,10,45,18.90
2009,07,01,10,46,19.00
2009,07,01,10,47,19.00
2009,07,01,10,48,19.10
2009,07,01,10,49,19.10
2009,07,01,10,50,19.20
2009,07,01,10,51,19.20
2009,07,01,10,52,19.30
2009,07,01,10,53,19.30
2009,07,01,10,54,19.20
2009,07,01,10,55,19.20
2009,07,01,10,56,19.20
2009,07,01,10,57,19.20
2009,07,01,10,58,19.20
2009,07,01,10,59,19.30
2009,07,01,11,00,19.30
2009,07,01,11,01,19.30
2009,07,01,11,02,19.30
2009,07,01,11,03,19.30
2009,07,01,11,04,19.30
2009,07,01,11,05,19.30
2009,07,01,11,06,19.30
2009,07,01,11,07,19.30
2009,07,01,11,08,19.30
2009,07,01,11,09,19.30
2009,07,01,11,10,19.40
2009,07,01,11,11,19.50
2009,07,01,11,12,19.60
2009,07,01,11,13,19.60
2009,07,01,11,14,19.60
2009,07,01,11,15,19.70
2009,07,01,11,16,19.70
2009,07,01,11,17,19.70
2009,07,01,11,18,19.70
2009,07,01,11,19,19.80
2009,07,01,11,20,19.90
2009,07,01,11,21,19.90
2009,07,01,11,22,20.00
2009,07,01,11,23,20.00
2009,07,01,11,24,20.00
2009,07,01,11,25,20.00
2009,07,01,11,26,20.00
2009,07,01,11,27,20.00
2009,07,01,11,28,19.90
2009,07,01,11,29,19.90
2009,07,01,11,30,19.80
2009,07,01,11,31,19.80
2009,07,01,11,32,19.90
2009,07,01,11,33,19.90
2009,07,01,11,34,20.00
2009,07,01,11,35,20.10
2009,07,01,11,36,20.20
2009,07,01,11,37,20.30
2009,07,01,11,38,20.40
2009,07,01,11,39,20.40
2009,07,01,11,40,20.50
2009,07,01,11,41,20.60
2009,07,01,11,42,20.70
2009,07,01,11,43,20.70
2009,07,01,11,44,20.70
2009,07,01,11,45,20.70
2009,07,01,11,46,20.60
2009,07,01,11,47,20.60
2009,07,01,11,48,20.60
2009,07,01,11,49,20.60
2009,07,01,11,50,20.60
2009,07,01,11,51,20.70
2009,07,01,11,52,20.70
2009,07,01,11,53,20.70
2009,07,01,11,54,20.60
2009,07,01,11,55,20.60
2009,07,01,11,56,20.60
2009,07,01,11,57,20.60
2009,07,01,11,58,20.60
2009,07,01,11,59,20.60
2009,07,01,12,00,20.60
2009,07,01,12,01,20.50
2009,07,01,12,02,20.50
2009,07,01,12,03,20.50
2009,07,01,12,04,20.50
2009,07,01,12,05,20.60
2009,07,01,12,06,20.60
2009,07,01,12,07,20.50
2009,07,01,12,08,20.50
2009,07,01,12,09,20.60
2009,07,01,12,10,20.60
2009,07,01,12,11,20.70
2009,07,01,12,12,20.70
2009,07,01,12,13,20.80
2009,07,01,12,14,20.80
2009,07,01,12,15,20.80
2009,07,01,12,16,20.80
2009,07,01,12,17,20.80
2009,07,01,12,18,20.80
2009,07,01,12,19,20.80
2009,07,01,12,20,20.80
2009,07,01,12,21,20.90
2009,07,01,12,22,20.90
2009,07,01,12,23,20.90
2009,07,01,12,24,20.90
2009,07,01,12,25,21.00
2009,07,01,12,26,21.00
2009,07,01,12,27,21.00
2009,07,01,12,28,21.10
2009,07,01,12,29,21.10
2009,07,01,12,30,21.10
2009,07,01,12,31,21.10
2009,07,01,12,32,21.10
2009,07,01,12,33,21.00
2009,07,01,12,34,21.00
2009,07,01,12,35,21.00
2009,07,01,12,36,21.00
2009,07,01,12,37,21.10
2009,07,01,12,38,21.20
2009,07,01,12,39,21.20
2009,07,01,12,40,21.30
2009,07,01,12,41,21.40
2009,07,01,12,42,21.50
2009,07,01,12,43,21.60
2009,07,01,12,44,21.60
2009,07,01,12,45,21.60
2009,07,01,12,46,21.60
2009,07,01,12,47,21.60
2009,07,01,12,48,21.60
2009,07,01,12,49,21.50
2009,07,01,12,50,21.50
2009,07,01,12,51,21.50
2009,07,01,12,52,21.50
2009,07,01,12,53,21.50
2009,07,01,12,54,21.40
2009,07,01,12,55,21.50
2009,07,01,12,56,21.60
2009,07,01,12,57,21.70
2009,07,01,12,58,21.80
2009,07,01,12,59,21.90
2009,07,01,13,00,22.10
2009,07,01,13,01,22.10
2009,07,01,13,02,22.10
2009,07,01,13,03,22.20
2009,07,01,13,04,22.20
2009,07,01,13,05,22.20
2009,07,01,13,06,22.30
2009,07,01,13,07,22.30
2009,07,01,13,08,22.30
2009,07,01,13,09,22.30
2009,07,01,13,10,22.40
2009,07,01,13,11,22.40
2009,07,01,13,12,22.40
2009,07,01,13,13,22.40
2009,07,01,13,14,22.30
2009,07,01,13,15,22.10
2009,07,01,13,16,22.00
2009,07,01,13,17,22.00
2009,07,01,13,18,22.00
2009,07,01,13,19,22.00
2009,07,01,13,20,22.00
2009,07,01,13,21,21.90
2009,07,01,13,22,21.90
2009,07,01,13,23,22.00
2009,07,01,13,24,22.10
2009,07,01,13,25,22.10
2009,07,01,13,26,22.20
2009,07,01,13,27,22.20
2009,07,01,13,28,22.20
2009,07,01,13,29,22.20
2009,07,01,13,30,22.20
2009,07,01,13,31,22.20
2009,07,01,13,32,22.20
2009,07,01,13,33,22.20
2009,07,01,13,34,22.20
2009,07,01,13,35,22.20
2009,07,01,13,36,22.20
2009,07,01,13,37,22.20
2009,07,01,13,38,22.10
2009,07,01,13,39,22.00
2009,07,01,13,40,21.90
2009,07,01,13,41,21.80
2009,07,01,13,42,21.80
2009,07,01,13,43,21.80
2009,07,01,13,44,21.90
2009,07,01,13,45,21.80
2009,07,01,13,46,21.90
2009,07,01,13,47,22.00
2009,07,01,13,48,22.10
2009,07,01,13,49,22.10
2009,07,01,13,50,22.20
2009,07,01,13,51,22.20
2009,07,01,13,52,22.20
2009,07,01,13,53,22.20
2009,07,01,13,54,22.20
2009,07,01,13,55,22.20
2009,07,01,13,56,22.10
2009,07,01,13,57,22.10
2009,07,01,13,58,22.10
2009,07,01,13,59,22.10
2009,07,01,14,00,22.10
2009,07,01,14,01,22.10
2009,07,01,14,02,22.20
2009,07,01,14,03,22.30
2009,07,01,14,04,22.40
2009,07,01,14,05,22.50
2009,07,01,14,06,22.50
2009,07,01,14,07,22.40
2009,07,01,14,08,22.40
2009,07,01,14,09,22.40
2009,07,01,14,10,22.50
2009,07,01,14,11,22.60
2009,07,01,14,12,22.70
2009,07,01,14,13,22.80
2009,07,01,14,14,22.80
2009,07,01,14,15,22.80
2009,07,01,14,16,22.80
2009,07,01,14,17,22.90
2009,07,01,14,18,22.90
2009,07,01,14,19,22.80
2009,07,01,14,20,22.80
2009,07,01,14,21,22.80
2009,07,01,14,22,22.80
2009,07,01,14,23,22.90
2009,07,01,14,24,23.00
2009,07,01,14,25,23.00
2009,07,01,14,26,23.00
2009,07,01,14,27,23.00
2009,07,01,14,28,23.10
2009,07,01,14,29,23.10
2009,07,01,14,30,23.10
2009,07,01,14,31,23.20
2009,07,01,14,32,23.30
2009,07,01,14,33,23.30
2009,07,01,14,34,23.30
2009,07,01,14,35,23.40
2009,07,01,14,36,23.50
2009,07,01,14,37,23.50
2009,07,01,14,38,23.60
2009,07,01,14,39,23.60
2009,07,01,14,40,23.70
2009,07,01,14,41,23.70
2009,07,01,14,42,23.70
2009,07,01,14,43,23.60
2009,07,01,14,44,23.40
2009,07,01,14,45,23.30
2009,07,01,14,46,23.30
2009,07,01,14,47,23.30
2009,07,01,14,48,23.30
2009,07,01,14,49,23.30
2009,07,01,14,50,23.40
2009,07,01,14,51,23.40
2009,07,01,14,52,23.40
2009,07,01,14,53,23.40
2009,07,01,14,54,23.50
2009,07,01,14,55,23.60
2009,07,01,14,56,23.70
2009,07,01,14,57,23.80
2009,07,01,14,58,23.90
2009,07,01,14,59,23.90
2009,07,01,15,00,23.90
2009,07,01,15,01,23.90
2009,07,01,15,02,23.80
2009,07,01,15,03,23.80
2009,07,01,15,04,23.80
2009,07,01,15,05,23.90
2009,07,01,15,06,23.90
2009,07,01,15,07,23.90
2009,07,01,15,08,24.00
2009,07,01,15,09,24.00
2009,07,01,15,10,24.00
2009,07,01,15,11,24.00
2009,07,01,15,12,23.90
2009,07,01,15,13,23.90
2009,07,01,15,14,23.90
2009,07,01,15,15,23.90
2009,07,01,15,16,23.90
2009,07,01,15,17,23.90
2009,07,01,15,18,24.00
2009,07,01,15,19,24.00
2009,07,01,15,20,24.10
2009,07,01,15,21,24.10
2009,07,01,15,22,24.20
2009,07,01,15,23,24.30
2009,07,01,15,24,24.30
2009,07,01,15,25,24.30
2009,07,01,15,26,24.20
2009,07,01,15,27,24.20
2009,07,01,15,28,24.30
2009,07,01,15,29,24.30
2009,07,01,15,30,24.40
2009,07,01,15,31,24.40
2009,07,01,15,32,24.40
2009,07,01,15,33,24.40
2009,07,01,15,34,24.40
2009,07,01,15,35,24.40
2009,07,01,15,36,24.40
2009,07,01,15,37,24.20
2009,07,01,15,38,24.20
2009,07,01,15,39,24.20
2009,07,01,15,40,24.10
2009,07,01,15,41,23.90
2009,07,01,15,42,23.90
2009,07,01,15,43,23.90
2009,07,01,15,44,24.10
2009,07,01,15,45,24.20
2009,07,01,15,46,24.40
2009,07,01,15,47,24.50
2009,07,01,15,48,24.50
2009,07,01,15,49,24.60
2009,07,01,15,50,24.70
2009,07,01,15,51,24.70
2009,07,01,15,52,24.70
2009,07,01,15,53,24.70
2009,07,01,15,54,24.70
2009,07,01,15,55,24.70
2009,07,01,15,56,24.70
2009,07,01,15,57,24.70
2009,07,01,15,58,24.70
2009,07,01,15,59,24.70
2009,07,01,16,00,24.60
2009,07,01,16,01,24.60
2009,07,01,16,02,24.50
2009,07,01,16,03,24.50
2009,07,01,16,04,24.30
2009,07,01,16,05,24.30
2009,07,01,16,06,24.20
2009,07,01,16,07,24.10
2009,07,01,16,08,24.00
2009,07,01,16,09,24.00
2009,07,01,16,10,23.90
2009,07,01,16,11,23.80
2009,07,01,16,12,23.80
2009,07,01,16,13,23.80
2009,07,01,16,14,23.80
2009,07,01,16,15,23.80
2009,07,01,16,16,23.80
2009,07,01,16,17,23.90
2009,07,01,16,18,23.90
2009,07,01,16,19,24.00
2009,07,01,16,20,24.10
2009,07,01,16,21,24.10
2009,07,01,16,22,24.10
2009,07,01,16,23,24.10
2009,07,01,16,24,24.10
2009,07,01,16,25,24.20
2009,07,01,16,26,24.10
2009,07,01,16,27,24.10
2009,07,01,16,28,24.10
2009,07,01,16,29,24.10
2009,07,01,16,30,24.10
2009,07,01,16,31,24.10
2009,07,01,16,32,24.00
2009,07,01,16,33,24.00
2009,07,01,16,34,24.00
2009,07,01,16,35,23.90
2009,07,01,16,36,23.90
2009,07,01,16,37,23.90
2009,07,01,16,38,23.90
2009,07,01,16,39,23.90
2009,07,01,16,40,24.00
2009,07,01,16,41,24.00
2009,07,01,16,42,24.00
2009,07,01,16,43,23.90
2009,07,01,16,44,23.90
2009,07,01,16,45,23.90
2009,07,01,16,46,23.90
2009,07,01,16,47,23.90
2009,07,01,16,48,23.90
2009,07,01,16,49,23.90
2009,07,01,16,50,23.90
2009,07,01,16,51,23.90
2009,07,01,16,52,24.00
2009,07,01,16,53,24.00
2009,07,01,16,54,24.10
2009,07,01,16,55,24.10
2009,07,01,16,56,24.10
2009,07,01,16,57,24.00
2009,07,01,16,58,24.00
2009,07,01,16,59,24.00
2009,07,01,17,00,23.90
2009,07,01,17,01,23.90
2009,07,01,17,02,23.90
2009,07,01,17,03,23.90
2009,07,01,17,04,23.90
2009,07,01,17,05,23.90
2009,07,01,17,06,23.90
2009,07,01,17,07,23.90
2009,07,01,17,08,24.00
2009,07,01,17,09,24.00
2009,07,01,17,10,24.00
2009,07,01,17,11,24.10
2009,07,01,17,12,24.10
2009,07,01,17,13,24.00
2009,07,01,17,14,24.10
2009,07,01,17,15,24.10
2009,07,01,17,16,24.10
2009,07,01,17,17,24.10
2009,07,01,17,18,24.10
2009,07,01,17,19,24.10
2009,07,01,17,20,24.10
2009,07,01,17,21,24.10
2009,07,01,17,22,24.10
2009,07,01,17,23,24.10
2009,07,01,17,24,24.10
2009,07,01,17,25,24.00
2009,07,01,17,26,24.00
2009,07,01,17,27,23.90
2009,07,01,17,28,23.90
2009,07,01,17,29,23.80
2009,07,01,17,30,23.80
2009,07,01,17,31,23.70
2009,07,01,17,32,23.70
2009,07,01,17,33,23.70
2009,07,01,17,34,23.70
2009,07,01,17,35,23.70
2009,07,01,17,36,23.70
2009,07,01,17,37,23.70
2009,07,01,17,38,23.70
2009,07,01,17,39,23.70
2009,07,01,17,40,23.80
2009,07,01,17,41,23.80
2009,07,01,17,42,23.80
2009,07,01,17,43,23.70
2009,07,01,17,44,23.70
2009,07,01,17,45,23.70
2009,07,01,17,46,23.70
2009,07,01,17,47,23.70
2009,07,01,17,48,23.70
2009,07,01,17,49,23.70
2009,07,01,17,50,23.70
2009,07,01,17,51,23.70
2009,07,01,17,52,23.70
2009,07,01,17,53,23.70
2009,07,01,17,54,23.70
2009,07,01,17,55,23.70
2009,07,01,17,56,23.80
2009,07,01,17,57,23.80
2009,07,01,17,58,23.80
2009,07,01,17,59,23.80
2009,07,01,18,00,23.80
2009,07,01,18,01,23.80
2009,07,01,18,02,23.90
2009,07,01,18,03,23.90
2009,07,01,18,04,23.90
2009,07,01,18,05,23.90
2009,07,01,18,06,23.90
2009,07,01,18,07,23.90
2009,07,01,18,08,24.00
2009,07,01,18,09,24.00
2009,07,01,18,10,24.00
2009,07,01,18,11,24.00
2009,07,01,18,12,24.00
2009,07,01,18,13,24.00
2009,07,01,18,14,24.00
2009,07,01,18,15,24.00
2009,07,01,18,16,24.00
2009,07,01,18,17,24.00
2009,07,01,18,18,24.00
2009,07,01,18,19,24.00
2009,07,01,18,20,24.00
2009,07,01,18,21,24.10
2009,07,01,18,22,24.10
2009,07,01,18,23,24.20
2009,07,01,18,24,24.20
2009,07,01,18,25,24.30
2009,07,01,18,26,24.30
2009,07,01,18,27,24.40
2009,07,01,18,28,24.50
2009,07,01,18,29,24.50
2009,07,01,18,30,24.60
2009,07,01,18,31,24.70
2009,07,01,18,32,24.70
2009,07,01,18,33,24.70
2009,07,01,18,34,24.80
2009,07,01,18,35,24.80
2009,07,01,18,36,24.80
2009,07,01,18,37,24.90
2009,07,01,18,38,24.90
2009,07,01,18,39,24.90
2009,07,01,18,40,24.90
2009,07,01,18,41,24.80
2009,07,01,18,42,24.80
2009,07,01,18,43,24.80
2009,07,01,18,44,24.80
2009,07,01,18,45,24.80
2009,07,01,18,46,24.80
2009,07,01,18,47,24.80
2009,07,01,18,48,24.80
2009,07,01,18,49,24.80
2009,07,01,18,50,24.80
2009,07,01,18,51,24.90
2009,07,01,18,52,25.00
2009,07,01,18,53,25.10